TimeAKDT,TemperatureF,Dew PointF,Humidity,Sea Level PressureIn,VisibilityMPH,Wind Direction,Wind SpeedMPH,Gust SpeedMPH,PrecipitationIn,Events,Conditions,WindDirDegrees,DateUTC
12:03 AM,42.8,42.8,100,29.53,6.0,ENE,13.8,-,N/A,,Partly Cloudy,70,2014-08-17 08:03:00
12:14 AM,42.8,42.8,100,29.52,1.8,ENE,15.0,-,N/A,,Mostly Cloudy,70,2014-08-17 08:14:00
12:16 AM,42.8,42.8,100,29.52,0.8,ENE,13.8,-,N/A,,Mostly Cloudy,70,2014-08-17 08:16:00
12:26 AM,42.8,42.8,100,29.52,1.2,ENE,13.8,-,N/A,,Mostly Cloudy,70,2014-08-17 08:26:00
12:28 AM,42.8,42.8,100,29.52,3.0,ENE,15.0,-,N/A,,Mostly Cloudy,70,2014-08-17 08:28:00
12:36 AM,42.8,42.8,100,29.53,7.0,ENE,13.8,-,N/A,,Scattered Clouds,70,2014-08-17 08:36:00
12:56 AM,41.9,41.9,100,29.55,10.0,East,12.7,-,N/A,,Clear,80,2014-08-17 08:56:00
1:56 AM,43.0,43.0,100,29.54,10.0,ENE,10.4,-,N/A,,Overcast,70,2014-08-17 09:56:00
2:56 AM,45.0,45.0,100,29.55,10.0,East,8.1,-,N/A,,Overcast,80,2014-08-17 10:56:00
3:56 AM,45.9,45.9,100,29.55,10.0,East,4.6,-,0.00,Rain,Light Rain,100,2014-08-17 11:56:00
4:56 AM,45.9,45.9,100,29.55,10.0,Variable,3.5,-,0.00,,Overcast,0,2014-08-17 12:56:00
5:56 AM,45.0,45.0,100,29.55,10.0,East,8.1,-,N/A,,Overcast,100,2014-08-17 13:56:00
6:56 AM,43.0,43.0,100,29.55,10.0,SE,6.9,-,N/A,,Mostly Cloudy,140,2014-08-17 14:56:00
7:56 AM,43.9,43.9,100,29.55,10.0,SSE,5.8,-,N/A,,Mostly Cloudy,150,2014-08-17 15:56:00
8:56 AM,47.8,47.8,100,29.55,10.0,South,5.8,-,N/A,,Scattered Clouds,170,2014-08-17 16:56:00
9:56 AM,50.0,48.2,94,29.54,10.0,SSE,5.8,-,N/A,,Overcast,160,2014-08-17 17:56:00
10:56 AM,50.9,48.9,93,29.56,10.0,SSW,4.6,-,N/A,,Overcast,210,2014-08-17 18:56:00
11:56 AM,52.0,48.9,89,29.56,10.0,Calm,Calm,-,N/A,,Overcast,0,2014-08-17 19:56:00
12:56 PM,54.0,50.0,86,29.57,10.0,WNW,4.6,-,N/A,,Overcast,290,2014-08-17 20:56:00
1:56 PM,54.9,50.0,84,29.57,10.0,NW,4.6,-,N/A,,Overcast,310,2014-08-17 21:56:00
2:56 PM,55.9,50.9,83,29.57,10.0,WNW,4.6,-,N/A,,Overcast,300,2014-08-17 22:56:00
3:56 PM,57.9,50.9,77,29.57,10.0,WNW,3.5,-,N/A,,Overcast,300,2014-08-17 23:56:00
4:56 PM,61.0,52.0,72,29.57,10.0,WNW,8.1,-,N/A,,Partly Cloudy,290,2014-08-18 00:56:00
5:56 PM,61.0,52.9,75,29.57,10.0,North,6.9,-,N/A,,Partly Cloudy,360,2014-08-18 01:56:00
6:56 PM,59.9,52.9,78,29.57,10.0,North,8.1,-,N/A,,Clear,360,2014-08-18 02:56:00
7:56 PM,57.9,52.0,81,29.58,10.0,NNW,6.9,-,N/A,,Partly Cloudy,340,2014-08-18 03:56:00
8:56 PM,54.9,50.9,86,29.59,10.0,North,6.9,-,N/A,,Clear,350,2014-08-18 04:56:00
9:56 PM,52.9,50.0,90,29.60,10.0,NNE,6.9,-,N/A,,Scattered Clouds,20,2014-08-18 05:56:00
10:56 PM,47.8,46.9,97,29.59,10.0,North,9.2,-,N/A,,Mostly Cloudy,360,2014-08-18 06:56:00
11:56 PM,45.9,45.9,100,29.60,10.0,NE,6.9,-,N/A,,Mostly Cloudy,40,2014-08-18 07:56:00